Weather History for Ozark, AL

Change the Weather History Date:

Thursday, May 22, 2014

  Actual Average Record
Temperature  
Mean Temperature 75 °F -  
Max Temperature 90 °F 83 °F 93 °F (1998)
Min Temperature 61 °F 61 °F 50 °F (2002)
Cooling Degree Days 10    
Growing Degree Days 25 (Base 50)    
Moisture  
Dew Point 62 °F    
Average Humidity 68    
Maximum Humidity 97    
Minimum Humidity 33    
Precipitation  
Precipitation 0.00 in - - ()
Sea Level Pressure  
Sea Level Pressure 30.13 in    
Wind  
Wind Speed 4 mph (West)    
Max Wind Speed 13 mph    
Max Gust Speed -    
Visibility 9 miles    
Events      
Averages and records for this station are not official NWS values.
T = Trace of Precipitation, MM = Missing Value Source: NWS Daily Summary

Daily Weather History Graph

Daily Weather History Graph

Search for Another Location

Airport:

Trip Planner

Search our weather history database for the weather conditions in past years. The results will help you decide how hot, cold, wet, or windy it might be!

Date:

Astronomy

May. 22, 2014 Rise Set
Actual Time 5:42 AM CDT 7:36 PM CDT
Civil Twilight 5:15 AM CDT 8:03 PM CDT
Nautical Twilight 4:43 AM CDT 8:36 PM CDT
Astronomical Twilight 4:08 AM CDT 9:10 PM CDT
Moon 1:36 AM CDT (5/22) 1:46 PM CDT (5/22)
Length of Visible Light 14h 47m
Length of Day
13h 53m
Last Quarter, 37% of the Moon is Illuminated
May 22
Last Quarter
May 28
New
Jun 5
First Quarter
Jun 12
Full
Jun 19
Last Quarter

Hourly Weather History & Observations

Time (CDT) Temp. Heat Index Dew Point Humidity Pressure Visibility Wind Dir Wind Speed Gust Speed Precip Events Conditions
12:58 AM 69.1 °F - 63.3 °F 82% 30.15 in 10.0 mi WNW 4.6 mph - N/A   Clear
1:58 AM 66.9 °F - 63.7 °F 89% 30.14 in 10.0 mi WSW 2.3 mph - N/A   Clear
2:58 AM 65.1 °F - 63.1 °F 93% 30.13 in 10.0 mi South 2.3 mph - N/A   Clear
3:58 AM 64.6 °F - 63.1 °F 95% 30.12 in 10.0 mi Calm Calm - N/A   Clear
4:58 AM 63.0 °F - 62.1 °F 97% 30.14 in 10.0 mi Calm Calm - N/A   Clear
5:43 AM 62.6 °F - 60.8 °F 94% 30.15 in 1.8 mi SSW 2.3 mph - N/A   Clear
5:45 AM 62.6 °F - 60.8 °F 94% 30.15 in 7.0 mi SW 2.3 mph - N/A   Clear
5:48 AM 62.6 °F - 60.8 °F 94% 30.15 in 0.8 mi SW 3.5 mph - N/A   Clear
5:53 AM 62.6 °F - 60.8 °F 94% 30.16 in 1.2 mi SW 2.3 mph - N/A   Clear
5:58 AM 61.5 °F - 60.3 °F 96% 30.16 in 8.0 mi SW 2.3 mph - N/A   Clear
6:58 AM 65.3 °F - 63.9 °F 95% 30.18 in 10.0 mi WSW 2.3 mph - N/A   Clear
7:58 AM 70.3 °F - 64.6 °F 82% 30.20 in 10.0 mi NW 5.8 mph - N/A   Clear
8:58 AM 76.3 °F - 64.9 °F 68% 30.20 in 10.0 mi Variable 2.3 mph - N/A   Clear
9:58 AM 80.6 °F 81.6 °F 61.3 °F 52% 30.20 in 10.0 mi NW 8.1 mph - N/A   Clear
10:58 AM 82.9 °F 83.0 °F 59.7 °F 45% 30.18 in 10.0 mi West 5.8 mph - N/A   Clear
11:58 AM 85.1 °F 84.8 °F 59.5 °F 42% 30.16 in 10.0 mi WNW 5.8 mph - N/A   Clear
12:58 PM 86.9 °F 85.5 °F 56.5 °F 35% 30.14 in 10.0 mi Variable 3.5 mph - N/A   Mostly Cloudy
1:58 PM 88.9 °F 87.3 °F 56.7 °F 33% 30.12 in 10.0 mi SW 9.2 mph - N/A   Clear
2:58 PM 89.8 °F 88.6 °F 58.1 °F 34% 30.10 in 10.0 mi West 10.4 mph - N/A   Clear
3:58 PM 89.8 °F 88.6 °F 58.3 °F 34% 30.09 in 10.0 mi West 11.5 mph - N/A   Clear
4:58 PM 89.4 °F 89.0 °F 60.3 °F 37% 30.07 in 10.0 mi WSW 12.7 mph - N/A   Clear
5:58 PM 88.2 °F 88.1 °F 61.2 °F 40% 30.06 in 10.0 mi West 5.8 mph - N/A   Clear
6:58 PM 85.1 °F 86.1 °F 63.3 °F 48% 30.07 in 10.0 mi West 3.5 mph - N/A   Clear
7:58 PM 80.2 °F 81.9 °F 64.0 °F 58% 30.07 in 10.0 mi WNW 3.5 mph - N/A   Clear
8:58 PM 77.2 °F - 63.9 °F 63% 30.09 in 10.0 mi West 3.5 mph - N/A   Clear
9:58 PM 75.9 °F - 64.4 °F 67% 30.09 in 10.0 mi WNW 3.5 mph - N/A   Clear
10:58 PM 74.8 °F - 64.6 °F 70% 30.10 in 10.0 mi WNW 3.5 mph - N/A   Clear
11:58 PM 73.9 °F - 64.8 °F 73% 30.10 in 10.0 mi NNW 4.6 mph - N/A   Clear